Weather in Shemi

Russia / Tyva Republic     51°09′26″N   91°17′29″E
temp.,
°C
wind,
m/s
gust,
m/s
humid.,
%
clouds,
%
prec.,
mm/h
press.,
hPa
HPBL,
m
5 march, fri
fri501:00−17sse009053 0.0 103020
04:00−19s009320 0.0 102920
07:00−21sw119422 0.0 102920
10:00−16nnw1191100 0.0 102855
13:00−13ne1185100 0.0 1024206
16:00−10nw2180100 0.0 1023268
19:00−14sw1186100 0.1 102720
22:00−17e11920 0.0 103120
6 march, sat
sat601:00−18ene11910 0.0 103420
04:00−20e009648 0.0 103320
07:00−20wsw009365 0.0 103420
10:00−15n0089100 0.0 103233
13:00−11ne118595 0.0 1028195
16:00−10nne118283 0.0 1025182
19:00−15sw009165 0.0 102621
22:00−17wsw119162 0.0 102620
7 march, sun
sun701:00−18ssw009433 0.0 102620
04:00−19sw119711 0.0 102520
07:00−20ne009627 0.0 102720
10:00−15n119170 0.0 102634
13:00−11ne118258 0.0 1024200
16:00−9ne007877 0.0 1023179
19:00−13ene008387 0.0 102621
22:00−16se018233 0.0 102821
8 march, mon
mon801:00−17sw008747 0.0 102920
04:00−17wsw119092 0.0 102920
07:00−18wsw009473 0.0 103020
10:00−14nne11910 0.0 102756
13:00−10n10850 0.0 1024200
16:00−8nne00821 0.0 1022194
19:00−14ssw11901 0.0 102321
22:00−14w018865 0.0 102421
9 march, tue
tue901:00−14ssw018666 0.0 102420
04:00−14nnw0089100 0.0 102520
07:00−16nne118567 0.0 102720
10:00−11n008518 0.0 102835
13:00−8ne11799 0.0 1026189
16:00−5n00790 0.0 1025165
19:00−11sse11860 0.0 102721
22:00−13ese01900 0.0 102821